[[{"header":{"parameterUnit":"m.s-1","parameterCategory":1,"la1":30.2992,"la2":30.254,"lo1":-89.0895,"lo2":-89.0443,"dy":0.0025,"dx":0.0025,"nx":19,"ny":19,"refTime":"2026-03-26T09:00:00:Z","depth":0,"parameterNumber":2,"parameterNumberName":"U-component_of_WINDS"},"data":[0,0,0,-1.3962,-1.3963,-1.4005,-1.4005,-1.4065,-1.4066,0,0,0,0,0,0,0,0,0,0,0,-1.3953,-1.3953,-1.3962,-1.3963,-1.4005,-1.4005,-1.4065,-1.4066,0,0,0,0,0,0,0,0,0,0,0,-1.3953,-1.3953,-1.3954,-1.3963,-1.4005,-1.4005,-1.4065,-1.4031,0,0,0,0,0,0,0,0,0,0,-1.3989,-1.3984,-1.3953,-1.3954,-1.3963,-1.4005,-1.4005,-1.4029,-1.4033,-1.4049,0,-1.4063,0,-1.4066,-1.407,-1.4071,0,0,0,-1.396,-1.3981,-1.3989,-1.3954,-1.3964,-1.4005,-1.3985,-1.4031,-1.4036,-1.4054,-1.4064,-1.4066,-1.4067,-1.4071,-1.4071,-1.417,-1.417,0,0,-1.3958,-1.3962,-1.3986,-1.3992,-1.3986,-1.3984,-1.3987,-1.4034,-1.4046,-1.4065,-1.4068,-1.4068,-1.4071,-1.4072,-1.4169,-1.417,0,0,0,-1.3953,-1.3961,-1.3968,-1.399,-1.3997,-1.3985,-1.3988,-1.4043,-1.4045,-1.4068,-1.4068,-1.4072,-1.4072,-1.4169,-1.417,-1.4203,0,0,0,-1.3952,-1.3958,-1.3967,-1.397,-1.3996,-1.4021,-1.3997,-1.4042,-1.4047,-1.4068,-1.4072,-1.4073,-1.4168,-1.4169,-1.42,-1.4218,0,0,0,-1.3949,-1.3958,-1.3965,-1.397,-1.3988,-1.402,-1.4024,-1.4043,-1.4047,-1.4071,-1.4073,-1.4168,-1.4169,-1.4198,-1.4214,-1.4245,0,0,0,-1.3947,-1.3993,-1.3965,-1.4017,-1.3988,-1.404,-1.4024,-1.4062,-1.4086,-1.4072,-1.4168,-1.4169,-1.4198,-1.4212,-1.4243,-1.4272,-1.4285,0,0,-1.4008,-1.4001,-1.4031,-1.4007,-1.4065,-1.4033,-1.4096,-1.4114,-1.4112,-1.4151,-1.4153,-1.4201,-1.4214,-1.4245,-1.4353,-1.4362,0,0,0,-1.4051,-1.4073,-1.4087,-1.411,-1.4125,-1.4139,-1.4147,-1.4154,-1.4186,-1.4133,-1.422,-1.4228,-1.4246,-1.426,-1.4268,-1.4283,-1.4176,-1.4176,-1.4176,-1.4143,-1.4139,-1.4188,-1.4189,-1.4211,-1.4219,-1.4237,-1.4248,-1.4236,-1.4257,-1.4269,-1.4335,-1.4351,-1.4357,-1.4373,-1.4284,-1.4284,-1.4284,-1.4284,-1.4232,-1.4262,-1.4246,-1.4288,-1.4284,-1.4319,-1.4329,-1.432,-1.4353,-1.4326,-1.4341,-1.4312,-1.4368,-1.4382,-1.4286,-1.4286,-1.4286,-1.4285,-1.4285,-1.4291,-1.4305,-1.4312,-1.4345,-1.4372,-1.4371,-1.4404,-1.4398,-1.4393,-1.4408,-1.442,-1.442,-1.4419,-1.4414,-1.4415,-1.4415,-1.4415,-1.4415,-1.4415,-1.4351,-1.4358,-1.4386,-1.4406,-1.442,-1.4438,-1.4447,-1.4461,-1.4475,-1.4469,-1.4469,-1.4456,-1.4375,-1.4354,-1.4419,-1.4418,-1.4418,-1.4418,-1.4417,-1.4442,-1.4421,-1.4464,-1.4478,-1.4502,-1.4528,-1.4521,-1.455,-1.4561,-1.4578,-1.4562,-1.4502,-1.4495,-1.4488,-1.4471,-1.4562,-1.4562,-1.4562,-1.4562,-1.4493,-1.4489,-1.4532,-1.4555,-1.4578,-1.4576,-1.4625,-1.4633,-1.4638,-1.4644,-1.463,-1.4608,-1.4601,-1.4598,-1.4588,-1.4573,-1.4687,-1.4688,-1.4688,-1.455,-1.4547,-1.459,-1.4594,-1.4612,-1.4628,-1.4675,-1.4703,-1.4704,-1.4693,-1.465,-1.4644,-1.4608,-1.4596,-1.4584,-1.457,-1.4541,0,0]},{"header":{"parameterUnit":"m.s-1","parameterCategory":1,"la1":30.2992,"la2":30.254,"lo1":-89.0895,"lo2":-89.0443,"dy":0.0025,"dx":0.0025,"nx":19,"ny":19,"refTime":"2026-03-26T09:00:00:Z","depth":0,"parameterNumber":3,"parameterNumberName":"V-component_of_WINDS"},"data":[0,0,0,1.9379,1.938,1.94,1.94,1.943,1.943,0,0,0,0,0,0,0,0,0,0,0,1.9377,1.9377,1.9379,1.938,1.94,1.94,1.943,1.943,0,0,0,0,0,0,0,0,0,0,0,1.9376,1.9377,1.9377,1.938,1.94,1.94,1.943,1.9413,0,0,0,0,0,0,0,0,0,0,1.9393,1.9394,1.9377,1.9377,1.938,1.94,1.94,1.9412,1.9414,1.9423,0,1.9433,0,1.9432,1.9433,1.9433,0,0,0,1.9377,1.9392,1.9395,1.9377,1.938,1.94,1.939,1.9413,1.9415,1.9426,1.9433,1.9434,1.9433,1.9433,1.9433,1.9496,1.9496,0,0,1.9376,1.9382,1.9393,1.9396,1.9394,1.9389,1.9391,1.9414,1.9422,1.9433,1.9435,1.9433,1.9433,1.9434,1.9496,1.9496,0,0,0,1.9375,1.9381,1.9383,1.9395,1.9398,1.939,1.9392,1.9421,1.9421,1.9435,1.9433,1.9433,1.9434,1.9495,1.9496,1.9522,0,0,0,1.9374,1.938,1.9383,1.9386,1.9398,1.941,1.9398,1.942,1.9422,1.9433,1.9433,1.9434,1.9495,1.9495,1.952,1.9534,0,0,0,1.9374,1.938,1.9384,1.9386,1.9395,1.941,1.9411,1.942,1.9422,1.9433,1.9434,1.9494,1.9495,1.9519,1.9531,1.9552,0,0,0,1.9376,1.9407,1.9385,1.9419,1.9395,1.9426,1.9411,1.9433,1.9446,1.9434,1.9495,1.9496,1.9518,1.9529,1.955,1.9571,1.958,0,0,1.9418,1.9412,1.9432,1.9413,1.9449,1.9423,1.9463,1.9469,1.9464,1.9486,1.9487,1.9521,1.9531,1.9552,1.9629,1.9636,0,0,0,1.9447,1.9461,1.947,1.9483,1.9489,1.9495,1.9494,1.9497,1.9515,1.9476,1.9534,1.954,1.9552,1.9561,1.9567,1.9578,1.95,1.95,1.95,1.9514,1.9508,1.954,1.9536,1.9549,1.9549,1.9559,1.9562,1.9551,1.9565,1.9571,1.9619,1.963,1.9634,1.9645,1.9581,1.9581,1.9581,1.9581,1.9575,1.9594,1.958,1.9607,1.96,1.9622,1.9623,1.9615,1.9634,1.9613,1.9623,1.9601,1.9643,1.9652,1.9583,1.9583,1.9583,1.9583,1.9582,1.9618,1.9627,1.963,1.9649,1.9664,1.9659,1.9679,1.9671,1.9665,1.9675,1.9681,1.968,1.9679,1.9678,1.9678,1.9679,1.9679,1.9679,1.9679,1.9662,1.9665,1.9682,1.9693,1.9701,1.971,1.9711,1.9718,1.9725,1.9718,1.9718,1.9706,1.9648,1.9634,1.9682,1.9681,1.9681,1.9681,1.968,1.9726,1.9711,1.9738,1.9746,1.9758,1.9774,1.9765,1.9781,1.9786,1.9796,1.9782,1.9741,1.9734,1.9729,1.9717,1.9783,1.9783,1.9783,1.9783,1.9763,1.9759,1.9786,1.98,1.9812,1.9807,1.9838,1.984,1.9838,1.9841,1.9831,1.9814,1.981,1.9805,1.9799,1.9788,1.9871,1.9871,1.9871,1.9802,1.9799,1.9827,1.9827,1.9836,1.9844,1.9873,1.9889,1.9884,1.9874,1.9843,1.984,1.9813,1.9805,1.9794,1.9783,1.9763,0,0]}]]